Showing default

AE5RB, 66693

Orbit data source: Space-Track

AE5RB, 66693 is a Japanese payload satellite in SSO that was launched on Fri, 28 Nov 2025 UTC via an FALCON 9 launch vehicle from the Air Force Western Test Range (AFWTR). Payload-class satellites include a variety of spacecraft equipped with specific instruments for various scientific and technological missions. These include communications satellites like Starlink; space stations such as the ISS; scientific satellites like the Hubble; Earth observation satellites from companies like Planet Labs, Umbra, and HawkEye 360; GPS; miniature CubeSats for education and research; and military/defense satellites.

Loading next visibility...
Identifier
66693, 2025-276AD
Orbit
SSO
Country
Flag of JPJP / JPN
Related business
None
Manufacturer
Unknown
Mission
Operational Amateur Science
Bus & Motor
Unknown
Mass
Unknown
Launch date (UTC)
2025-11-28 (6 months ago)
Launch vehicle
FALCON 9
Launch site
Air Force Western Test Range (AFWTR)
Object type
Payload
Rocket body
Debris
Shape & HBR
Box, 0.1 m
Radar Cross Section
0.080 m²

Expand to show TLE details & history
Last TLE update: 7 hours ago

TLE from 7 hours ago
0 AE5RB
1 66693U 25276AD  26144.94570539  .00009886  00000-0  43574-3 0  9998
2 66693  97.4179 219.1445 0005624 101.2386 258.9483 15.21991291 26910
Epoch: 2026-05-24T22:41Z
TLE epoch observation values (Epoch: 2026-05-24T22:41:48.945Z)
Latitude
0.00001°
Longitude
-3.85°
Altitude
503.671 km
Speed
7.612 km/s
True Right ascension
14h 36m 34s
True Declination
0° 00' 00"
Sunlit
Object was in full shadow at epoch
Visualization orbit readout
Latitude
Unknown
Longitude
Unknown
Altitude
Unknown
Speed
Unknown
Apparent Right ascension
Unknown
Apparent Declination
Unknown
Sunlit
N/A
Visualization observer readout
Local Sidereal Time
14:50:44
Azimuth
Unknown
Elevation
Unknown
Doppler factor
Unknown
Orbital elements
Apogee altitude
500.665 km
Perigee altitude
492.932 km
Semi-major axis
6,874.936 km
Eccentricity
0.00056
Inclination
97.4179°
RAAN
219.1445°
Arg. of periapsis
101.2386°
True anomaly
258.88506°
Mean anomaly
258.9483°
Eccentric anomaly
258.91668°
Mean motion
3.8075 °/min
Orbital period
94.55 mins
BSTAR
0.00043574
Loading maneuver chart data...
Computing Atmospheric mass density...
Loading historical data...
Loading historical data...
Loading historical data...
Loading historical data...
Loading historical data...
Loading historical data...
Loading historical data...

Documentation

Showing up to 5 results
|